Tracking 28790 objects as of 19-Apr-2024
HD Live streaming from Space Station
objects crossing your sky now

CZ-4 DEB

Track CZ-4 DEB now!
10-day predictions


NORAD ID: 27806
Int'l Code: 1999-057MW
Perigee: 716.2 km
Apogee: 871.8 km
Inclination: 98.9 °
Period: 100.6 minutes
Semi major axis: 7164 km
RCS: 0.0153 m2 (small)
Launch date: October 14, 1999
Source: People's Republic of China (PRC)
Launch site: Taiyaun Space Center, China (TSC)

Note: This is SATELLITE DEBRIS
Your satellite tracking list
Your tracking list is empty




NASA's NSSDC Master Catalog

Two Line Element Set (TLE):
1 27806U 99057MW  24108.82459130  .00000481  00000-0  18694-3 0  9994
2 27806  98.9259 107.9155 0108646 240.2137 118.8205 14.31459360169310
Source of the keplerian elements: AFSPC